Flag for Canada Weather past 2 weeks in Rouyn-Noranda, Quebec, Canada

Now
37 °F

Overcast.


Feels Like: 32 °F
Forecast: 30 / 41 °F
Wind: 7 mph from Northeast

Location: Rouyn Airport

Current Time: Oct 20, 2014 at 10:35:12 PM

Latest Report: Oct 20, 2014 at 10:00 PM


Visibility: 15 mi

Pressure: 30.00 "Hg

Humidity: 81%

Dew point: 32 °F

Location of Rouyn-NorandaLocation

Historic Weather in Rouyn-Noranda — Graph

°F

Rouyn-Noranda temperature yesterday

Maximum temperature yesterday: 34 °F (at 12:00 AM)
Minimum temperature yesterday: 28 °F (at 10:00 PM)
Average temperature yesterday: 32 °F

Past Weeks' High & Low Weather Summary

 TemperatureHumidityPressure
High61 °F (Oct 14, 10:00 AM)100% (Oct 5, 10:00 PM)30.17 "Hg (Oct 5, 10:00 PM)
Low28 °F (Oct 19, 10:00 PM)48% (Oct 13, 1:00 PM)29.29 "Hg (Oct 17, 3:00 PM)
Average43 °F89%29.82 "Hg
* Reported Oct 5 9:00 PM — Oct 20 9:00 PM, Rouyn-Noranda, Weather by CustomWeather, © 2014

Note: Actual official high and low records may vary slightly from our data, if they occured in-between our weather recording intervals... More about our weather records

Advertising

Rouyn-Noranda weather history for previous 24 hours

 ConditionsComfort  
Time TempWeatherWind HumidityBarometerVisibility
9:00 PM
Oct 20
37 °FPassing clouds.5 mph81%29.98 "Hg15 mi
8:00 PM37 °FPassing clouds.3 mph87%29.96 "Hg15 mi
7:00 PM37 °FBroken clouds.3 mph87%29.94 "Hg15 mi
6:00 PM39 °FBroken clouds.7 mph81%29.91 "Hg15 mi
5:00 PM39 °FLight rain. Overcast.6 mph87%29.90 "Hg15 mi
4:00 PM39 °FLight rain. Overcast.7 mph87%29.89 "Hg15 mi
3:00 PM39 °FLight rain. Low clouds.5 mph87%29.88 "Hg15 mi
2:47 PM39 °FLight rain. Low clouds.6 mph87%29.88 "Hg15 mi
2:00 PM37 °FLow clouds.7 mph87%29.89 "Hg15 mi
1:00 PM37 °FLow clouds.6 mph87%29.89 "Hg15 mi
12:00 PM36 °FLight snow. Mostly cloudy.5 mph93%29.90 "Hg12 mi
11:00 AM34 °FLight snow. More clouds than sun.6 mph93%29.91 "Hg15 mi
10:00 AM34 °FLight snow. Overcast.5 mph87%29.91 "Hg15 mi
9:00 AM32 °FLight snow. Overcast.5 mph93%29.91 "Hg15 mi
8:00 AM30 °FLight snow. Overcast.3 mph100%29.90 "Hg12 mi
7:51 AM30 °FLight snow. Overcast.3 mph93%29.90 "Hg12 mi
7:00 AM30 °FPassing clouds.5 mph93%29.90 "Hg15 mi
6:00 AM30 °FPassing clouds.5 mph93%29.90 "Hg15 mi
5:00 AM30 °FPassing clouds.5 mph93%29.90 "Hg15 mi
4:00 AM28 °FPassing clouds.3 mph93%29.91 "Hg15 mi
3:00 AM28 °FPassing clouds.5 mph93%29.92 "Hg15 mi
2:00 AM28 °FPassing clouds.6 mph93%29.94 "Hg15 mi
1:00 AM28 °FPassing clouds.5 mph93%29.95 "Hg15 mi
11:00 PM
Oct 19
28 °FPassing clouds.3 mph93%29.98 "Hg15 mi
10:00 PM28 °FPassing clouds.5 mph93%29.98 "Hg15 mi
Weather by CustomWeather, © 2014

See weather overviewHow to use our weather pages